Taba International, Egypt

8:52 PM EET on July 23, 2017 (GMT +0200)
Taba International

Weather History for HETB - October, 2012

Change the Weather History Date:

Sunday, October 7, 2012

  Actual Average Record
Temperature  
Mean Temperature 71 °F -  
Max Temperature 82 °F - - ()
Min Temperature 60 °F - - ()
Cooling Degree Days 6    
Growing Degree Days 21 (Base 50)    
Moisture  
Dew Point 46 °F    
Average Humidity 45    
Maximum Humidity 73    
Minimum Humidity 19    
Precipitation  
Precipitation 0.00 in - - ()
Sea Level Pressure  
Sea Level Pressure 30.03 in    
Wind  
Wind Speed 2 mph ()    
Max Wind Speed 12 mph    
Max Gust Speed -    
T = Trace of Precipitation, MM = Missing Value Source: Averaged Metar Reports

Daily Weather History Graph

Daily Weather History Graph

Search for Another Location

Airport or City:

Trip Planner

Search our weather history database for the weather conditions in past years. The results will help you decide how hot, cold, wet, or windy it might be!

Date:

Astronomy

Oct. 07, 2012 Rise Set
Actual Time 5:37 AM EET 5:19 PM EET
Civil Twilight 5:13 AM EET 5:42 PM EET
Nautical Twilight 4:46 AM EET 6:10 PM EET
Astronomical Twilight 4:18 AM EET 6:38 PM EET
Moon 10:28 PM EET (10/7) 11:41 AM EET (10/7)
Length of Visible Light 12h 29m
Length of Day
11h 41m
Waning Gibbous, 58% of the Moon is Illuminated
Oct 7
Waning Gibbous
Oct 8
Last Quarter
Oct 15
New
Oct 22
First Quarter
Oct 29
Full

Hourly Weather History & Observations

Time (EET) Temp. Dew Point Humidity Pressure Visibility Wind Dir Wind Speed Gust Speed Precip Events Conditions
12:00 AM 64.4 °F 55.4 °F 73% 30.04 in - Calm Calm - N/A   Clear
1:00 AM 64.4 °F 53.6 °F 68% 30.04 in - Calm Calm - N/A   Clear
2:00 AM 64.4 °F 53.6 °F 68% 30.04 in - WNW 4.6 mph - N/A   Clear
3:00 AM 62.6 °F 53.6 °F 72% 30.04 in - Calm Calm - N/A   Clear
4:00 AM 60.8 °F 51.8 °F 72% 30.04 in - Calm Calm - N/A   Clear
5:00 AM 60.8 °F 51.8 °F 72% 30.04 in - Calm Calm - N/A   Clear
11:00 AM 77.0 °F 42.8 °F 29% 30.04 in - Calm Calm - N/A   Clear
12:00 PM 77.0 °F 42.8 °F 29% 30.01 in - West 5.8 mph - N/A   Clear
1:00 PM 78.8 °F 41.0 °F 26% 30.01 in - Calm Calm - N/A   Clear
2:00 PM 80.6 °F 39.2 °F 23% 30.01 in - NW 4.6 mph - N/A   Clear
3:00 PM 82.4 °F 35.6 °F 19% 29.98 in - West 6.9 mph - N/A   Clear
4:00 PM 78.8 °F 37.4 °F 23% 29.98 in - West 5.8 mph - N/A   Clear
5:00 PM 77.0 °F 44.6 °F 32% 30.01 in - NW 11.5 mph - N/A   Clear
6:00 PM 75.2 °F 42.8 °F 31% 30.04 in - NW 9.2 mph - N/A   Clear
7:00 PM 73.4 °F 44.6 °F 36% 30.04 in - NNW 5.8 mph - N/A   Clear
8:00 PM 71.6 °F 44.6 °F 38% 30.04 in - WNW 10.4 mph - N/A   Clear
9:00 PM 69.8 °F 44.6 °F 40% 30.04 in - Calm Calm - N/A   Clear
10:00 PM 68.0 °F 46.4 °F 46% 30.06 in - Calm Calm - N/A   Clear
11:00 PM 66.2 °F 48.2 °F 52% 30.04 in - Calm Calm - N/A   Clear